Regional Weather Roundup
Issued by NWS

Home | Current Version | Previous Version | Text Only | Print | Product List | Glossary On
Versions: 1 2 3 4 5 6 7 8 9 10 11 12 13 14 15 16 17 18 19 20 21 22 23 24 25 26 27 28 29 30 31 32 33 34 35 36 37 38 39 40 41 42 43 44 45 46 47 48 49 50
000
ASUS46 KSEW 021810
RWRWA

WASHINGTON REGIONAL WEATHER ROUNDUP
NATIONAL WEATHER SERVICE SEATTLE WA
1100 AM PDT SUN AUG 02 2015

NOTE:"FAIR" INDICATES FEW OR NO CLOUDS BELOW 12,000 FEET WITH NO
SIGNIFICANT WEATHER AND/OR OBSTRUCTIONS TO VISIBILITY.

WAZ505-507>509-021900-
SEATTLE, TACOMA, EVERETT, AND VICINITY

CITY           SKY/WX    TMP DP  RH WIND       PRES   REMARKS
EVERETT        PTSUNNY   72  56  57 VRB3      29.97F
6HR MIN TEMP:  58; 6HR MAX TEMP:  72;

BOEING FIELD   PTSUNNY   73  54  51 NW5       29.94F
6HR MIN TEMP:  64; 6HR MAX TEMP:  74;

RENTON         PTSUNNY   73  54  51 NW5       29.94S
6HR MIN TEMP:  64; 6HR MAX TEMP:  74;

SEATAC AIRPORT PTSUNNY   75  55  49 CALM      29.96F
6HR MIN TEMP:  61; 6HR MAX TEMP:  75;

JBLM-MCCHORD   MOSUNNY   74  54  48 VRB5      29.95F
6HR MIN TEMP:  53; 6HR MAX TEMP:  74;

PUYALLUP       FAIR      75  55  50 CALM      29.96F
BREMERTON      MOSUNNY   73  55  53 E6        29.98S
6HR MIN TEMP:  54; 6HR MAX TEMP:  73;

JBLM-FT LEWIS  SUNNY     76  53  44 NW7       29.95F
6HR MIN TEMP:  55; 6HR MAX TEMP:  76; 6HR PCP: TRACE;

TACOMA NARROWS PTSUNNY   71  53  52 SE5       29.96S
6HR MIN TEMP:  60; 6HR MAX TEMP:  71;

$$

WAZ001-503-506-510-514-515-021900-
NORTH INTERIOR

CITY           SKY/WX    TMP DP  RH WIND       PRES   REMARKS
BELLINGHAM     MOSUNNY   72  61  68 SE7       29.94F
6HR MIN TEMP:  60; 6HR MAX TEMP:  73;

FRIDAY HARBOR  PTSUNNY   64  54  69 E3        29.96S
6HR MIN TEMP:  50; 6HR MAX TEMP:  67;

EASTSOUND      MOSUNNY   66  59  77 N6        29.94F
PORT ANGELES   PTSUNNY   66  55  67 VRB3      29.97R
6HR MIN TEMP:  52; 6HR MAX TEMP:  66;

PORT TOWNSEND  FAIR      73  55  53 VRB7      29.95F
NAS WHIDBEY    PTSUNNY   62  55  77 W8        30.00S
6HR MIN TEMP:  51; 6HR MAX TEMP:  62;

ARLINGTON      PTSUNNY   73  52  46 CALM      29.96F
6HR MIN TEMP:  52; 6HR MAX TEMP:  73;

BURLINGTON     SUNNY     73  57  56 NW9       29.96R
$$

WAZ020-022-039-040-504-511-512-021900-
SOUTHWEST INTERIOR

CITY           SKY/WX    TMP DP  RH WIND       PRES   REMARKS
SHELTON        MOSUNNY   77  52  41 SE7       29.93F
6HR MIN TEMP:  53; 6HR MAX TEMP:  77;

OLYMPIA        MOSUNNY   77  52  41 N9        29.95F
6HR MIN TEMP:  54; 6HR MAX TEMP:  78;

CHEHALIS       FAIR      77  57  50 N6        29.95S
KELSO          PTSUNNY   72  55  56 CALM      29.95F
6HR MIN TEMP:  61; 6HR MAX TEMP:  73;

VANCOUVER      MOSUNNY   76  55  48 W8        29.93R
6HR MIN TEMP:  65; 6HR MAX TEMP:  77;

SCAPPOOSE, OR  PTSUNNY   78  52  40 VRB3      29.92S
6HR MIN TEMP:  58; 6HR MAX TEMP:  79;

PORTLAND, OR   PTSUNNY   77  55  46 VRB3      29.93S
6HR MIN TEMP:  67; 6HR MAX TEMP:  78;

$$

WAZ021-516-517-021900-
WASHINGTON COAST

CITY           SKY/WX    TMP DP  RH WIND       PRES   REMARKS
FORKS          PTSUNNY   67  60  78 W6        29.96F
6HR MIN TEMP:  52; 6HR MAX TEMP:  67;

HOQUIAM        PTSUNNY   63  58  83 S7        29.95F
6HR MIN TEMP:  56; 6HR MAX TEMP:  64;

ASTORIA, OR    PTSUNNY   68  59  73 W7        29.95R
6HR MIN TEMP:  56; 6HR MAX TEMP:  68;

$$

WAZ019-023-024-040-518-519-021900-
CASCADE MOUNTAINS AND COLUMBIA GORGE

CITY           SKY/WX    TMP DP  RH WIND       PRES   REMARKS
TROUTDALE, OR  MOSUNNY   77  56  48 CALM      29.92S
6HR MIN TEMP:  62; 6HR MAX TEMP:  77;

THE DALLES, OR MOSUNNY   87  48  25 NW13      29.83F
6HR MIN TEMP:  72; 6HR MAX TEMP:  87;

$$

WAZ026-027-041>044-520-521-021900-
EAST SLOPES

CITY           SKY/WX    TMP DP  RH WIND       PRES   REMARKS
OMAK           SUNNY     90  35  14 N15       29.87F
6HR MIN TEMP:  62; 6HR MAX TEMP:  90;

WENATCHEE      SUNNY     86  37  17 W3        29.87F
6HR MIN TEMP:  68; 6HR MAX TEMP:  86;

ELLENSBURG     SUNNY     84  37  18 SE6       29.91F
6HR MIN TEMP:  56; 6HR MAX TEMP:  84;

YAKIMA         SUNNY     90  37  15 VRB3      29.88F
6HR MIN TEMP:  61; 6HR MAX TEMP:  91;

$$

WAZ028-034-035-021900-
COLUMBIA BASIN

CITY           SKY/WX    TMP DP  RH WIND       PRES   REMARKS
EPHRATA        SUNNY     89  38  16 SE3       29.87F HAZE
6HR MIN TEMP:  70; 6HR MAX TEMP:  89;

MOSES LAKE     SUNNY     87  36  16 CALM      29.88F
6HR MIN TEMP:  58; 6HR MAX TEMP:  88;

PASCO          SUNNY     85  45  24 CALM      29.85F
6HR MIN TEMP:  55; 6HR MAX TEMP:  86;

HERMISTON, OR  MOSUNNY   87  48  25 NW6       29.85F
6HR MIN TEMP:  62; 6HR MAX TEMP:  87;

$$

WAZ036>038-021900-
NORTHEAST WASHINGTON

CITY           SKY/WX    TMP DP  RH WIND       PRES   REMARKS
SPOKANE GEIGER CLOUDY    85  41  21 NE6       29.93F
6HR MIN TEMP:  65; 6HR MAX TEMP:  85;

SPOKANE FELTS  MOSUNNY   85  39  19 CALM      29.92F
6HR MIN TEMP:  57; 6HR MAX TEMP:  85;

FAIRCHILD AFB  SUNNY     85  33  15 VRB3      29.93F
6HR MIN TEMP:  59; 6HR MAX TEMP:  85;

COEURDALENE,ID SUNNY     84  39  20 SE3       29.93S
6HR MIN TEMP:  52; 6HR MAX TEMP:  84;

DEER PARK      SUNNY     83  36  18 N5        29.94F
6HR MIN TEMP:  45; 6HR MAX TEMP:  83;

$$

WAZ029>033-021900-
SOUTHEAST WASHINGTON

CITY           SKY/WX    TMP DP  RH WIND       PRES   REMARKS
PULLMAN        SUNNY     88  34  14 SE5       29.97F
6HR MIN TEMP:  52; 6HR MAX TEMP:  89;

LEWISTON, ID   SUNNY     85  39  19 N3        29.90F
6HR MIN TEMP:  65; 6HR MAX TEMP:  85;

WALLA WALLA    SUNNY     91  33  12 N3        29.88F
6HR MIN TEMP:  69; 6HR MAX TEMP:  91;

PENDLETON, OR  SUNNY     91  33  12 NW6       29.89F
6HR MIN TEMP:  61; 6HR MAX TEMP:  91;

$$



USA.gov is the U.S. government's official web portal to all federal, state and local government web resources and services.